Index of /20260416/WXO-DD/model_gdps/15km/00/039
Name Last modified Size Description
Parent Directory -
20260416T00Z_MSC_GDPS_AbsoluteVorticity_IsbL-0200_LatLon0.15_PT039H.grib2 2026-04-16 04:06 1.2M
20260416T00Z_MSC_GDPS_AbsoluteVorticity_IsbL-0250_LatLon0.15_PT039H.grib2 2026-04-16 04:06 1.3M
20260416T00Z_MSC_GDPS_AbsoluteVorticity_IsbL-0500_LatLon0.15_PT039H.grib2 2026-04-16 04:06 1.5M
20260416T00Z_MSC_GDPS_AbsoluteVorticity_IsbL-0700_LatLon0.15_PT039H.grib2 2026-04-16 04:06 1.6M
20260416T00Z_MSC_GDPS_AbsoluteVorticity_IsbL-0850_LatLon0.15_PT039H.grib2 2026-04-16 04:06 1.6M
20260416T00Z_MSC_GDPS_AirTemp_AGL-120m_LatLon0.15_PT039H.grib2 2026-04-16 04:06 917K
20260416T00Z_MSC_GDPS_AirTemp_AGL-2m_LatLon0.15_PT039H.grib2 2026-04-16 04:06 1.0M
20260416T00Z_MSC_GDPS_AirTemp_AGL-40m_LatLon0.15_PT039H.grib2 2026-04-16 04:06 820K
20260416T00Z_MSC_GDPS_AirTemp_AGL-80m_LatLon0.15_PT039H.grib2 2026-04-16 04:06 927K
20260416T00Z_MSC_GDPS_AirTemp_IsbL-0001_LatLon0.15_PT039H.grib2 2026-04-16 04:06 702K
20260416T00Z_MSC_GDPS_AirTemp_IsbL-0005_LatLon0.15_PT039H.grib2 2026-04-16 04:06 685K
20260416T00Z_MSC_GDPS_AirTemp_IsbL-0010_LatLon0.15_PT039H.grib2 2026-04-16 04:06 756K
20260416T00Z_MSC_GDPS_AirTemp_IsbL-0020_LatLon0.15_PT039H.grib2 2026-04-16 04:06 698K
20260416T00Z_MSC_GDPS_AirTemp_IsbL-0030_LatLon0.15_PT039H.grib2 2026-04-16 04:06 754K
20260416T00Z_MSC_GDPS_AirTemp_IsbL-0050_LatLon0.15_PT039H.grib2 2026-04-16 04:06 823K
20260416T00Z_MSC_GDPS_AirTemp_IsbL-0100_LatLon0.15_PT039H.grib2 2026-04-16 04:06 953K
20260416T00Z_MSC_GDPS_AirTemp_IsbL-0150_LatLon0.15_PT039H.grib2 2026-04-16 04:06 970K
20260416T00Z_MSC_GDPS_AirTemp_IsbL-0175_LatLon0.15_PT039H.grib2 2026-04-16 04:06 960K
20260416T00Z_MSC_GDPS_AirTemp_IsbL-0200_LatLon0.15_PT039H.grib2 2026-04-16 04:06 973K
20260416T00Z_MSC_GDPS_AirTemp_IsbL-0225_LatLon0.15_PT039H.grib2 2026-04-16 04:06 1.0M
20260416T00Z_MSC_GDPS_AirTemp_IsbL-0250_LatLon0.15_PT039H.grib2 2026-04-16 04:06 1.0M
20260416T00Z_MSC_GDPS_AirTemp_IsbL-0275_LatLon0.15_PT039H.grib2 2026-04-16 04:06 1.0M
20260416T00Z_MSC_GDPS_AirTemp_IsbL-0300_LatLon0.15_PT039H.grib2 2026-04-16 04:06 954K
20260416T00Z_MSC_GDPS_AirTemp_IsbL-0350_LatLon0.15_PT039H.grib2 2026-04-16 04:06 928K
20260416T00Z_MSC_GDPS_AirTemp_IsbL-0400_LatLon0.15_PT039H.grib2 2026-04-16 04:06 937K
20260416T00Z_MSC_GDPS_AirTemp_IsbL-0450_LatLon0.15_PT039H.grib2 2026-04-16 04:06 957K
20260416T00Z_MSC_GDPS_AirTemp_IsbL-0500_LatLon0.15_PT039H.grib2 2026-04-16 04:06 1.0M
20260416T00Z_MSC_GDPS_AirTemp_IsbL-0550_LatLon0.15_PT039H.grib2 2026-04-16 04:06 1.0M
20260416T00Z_MSC_GDPS_AirTemp_IsbL-0600_LatLon0.15_PT039H.grib2 2026-04-16 04:06 887K
20260416T00Z_MSC_GDPS_AirTemp_IsbL-0650_LatLon0.15_PT039H.grib2 2026-04-16 04:06 918K
20260416T00Z_MSC_GDPS_AirTemp_IsbL-0700_LatLon0.15_PT039H.grib2 2026-04-16 04:06 953K
20260416T00Z_MSC_GDPS_AirTemp_IsbL-0750_LatLon0.15_PT039H.grib2 2026-04-16 04:06 1.0M
20260416T00Z_MSC_GDPS_AirTemp_IsbL-0800_LatLon0.15_PT039H.grib2 2026-04-16 04:06 1.1M
20260416T00Z_MSC_GDPS_AirTemp_IsbL-0850_LatLon0.15_PT039H.grib2 2026-04-16 04:06 1.1M
20260416T00Z_MSC_GDPS_AirTemp_IsbL-0875_LatLon0.15_PT039H.grib2 2026-04-16 04:06 1.2M
20260416T00Z_MSC_GDPS_AirTemp_IsbL-0900_LatLon0.15_PT039H.grib2 2026-04-16 04:06 1.2M
20260416T00Z_MSC_GDPS_AirTemp_IsbL-0925_LatLon0.15_PT039H.grib2 2026-04-16 04:06 1.1M
20260416T00Z_MSC_GDPS_AirTemp_IsbL-0950_LatLon0.15_PT039H.grib2 2026-04-16 04:06 1.2M
20260416T00Z_MSC_GDPS_AirTemp_IsbL-0970_LatLon0.15_PT039H.grib2 2026-04-16 04:06 1.2M
20260416T00Z_MSC_GDPS_AirTemp_IsbL-0985_LatLon0.15_PT039H.grib2 2026-04-16 04:06 1.1M
20260416T00Z_MSC_GDPS_AirTemp_IsbL-1000_LatLon0.15_PT039H.grib2 2026-04-16 04:06 1.1M
20260416T00Z_MSC_GDPS_AirTemp_IsbL-1015_LatLon0.15_PT039H.grib2 2026-04-16 04:06 1.1M
20260416T00Z_MSC_GDPS_Albedo_Sfc_LatLon0.15_PT039H.grib2 2026-04-16 04:06 247K
20260416T00Z_MSC_GDPS_CAPE_Sfc_LatLon0.15_PT039H.grib2 2026-04-16 04:06 3.8M
20260416T00Z_MSC_GDPS_CIN_Sfc_LatLon0.15_PT039H.grib2 2026-04-16 04:06 2.9M
20260416T00Z_MSC_GDPS_CloudWater_EAtm_LatLon0.15_PT039H.grib2 2026-04-16 04:06 531K
20260416T00Z_MSC_GDPS_ConvectivePrecip-Accum_Sfc_LatLon0.15_PT039H.grib2 2026-04-16 04:06 2.6M
20260416T00Z_MSC_GDPS_DewPointDepression_AGL-2m_LatLon0.15_PT039H.grib2 2026-04-16 04:06 756K
20260416T00Z_MSC_GDPS_DewPointDepression_IsbL-0010_LatLon0.15_PT039H.grib2 2026-04-16 04:06 10K
20260416T00Z_MSC_GDPS_DewPointDepression_IsbL-0020_LatLon0.15_PT039H.grib2 2026-04-16 04:06 56K
20260416T00Z_MSC_GDPS_DewPointDepression_IsbL-0030_LatLon0.15_PT039H.grib2 2026-04-16 04:06 71K
20260416T00Z_MSC_GDPS_DewPointDepression_IsbL-0050_LatLon0.15_PT039H.grib2 2026-04-16 04:06 361K
20260416T00Z_MSC_GDPS_DewPointDepression_IsbL-0100_LatLon0.15_PT039H.grib2 2026-04-16 04:06 382K
20260416T00Z_MSC_GDPS_DewPointDepression_IsbL-0150_LatLon0.15_PT039H.grib2 2026-04-16 04:06 463K
20260416T00Z_MSC_GDPS_DewPointDepression_IsbL-0175_LatLon0.15_PT039H.grib2 2026-04-16 04:06 534K
20260416T00Z_MSC_GDPS_DewPointDepression_IsbL-0200_LatLon0.15_PT039H.grib2 2026-04-16 04:06 619K
20260416T00Z_MSC_GDPS_DewPointDepression_IsbL-0225_LatLon0.15_PT039H.grib2 2026-04-16 04:06 753K
20260416T00Z_MSC_GDPS_DewPointDepression_IsbL-0250_LatLon0.15_PT039H.grib2 2026-04-16 04:06 884K
20260416T00Z_MSC_GDPS_DewPointDepression_IsbL-0275_LatLon0.15_PT039H.grib2 2026-04-16 04:06 910K
20260416T00Z_MSC_GDPS_DewPointDepression_IsbL-0300_LatLon0.15_PT039H.grib2 2026-04-16 04:06 949K
20260416T00Z_MSC_GDPS_DewPointDepression_IsbL-0350_LatLon0.15_PT039H.grib2 2026-04-16 04:06 971K
20260416T00Z_MSC_GDPS_DewPointDepression_IsbL-0400_LatLon0.15_PT039H.grib2 2026-04-16 04:06 1.0M
20260416T00Z_MSC_GDPS_DewPointDepression_IsbL-0450_LatLon0.15_PT039H.grib2 2026-04-16 04:06 1.0M
20260416T00Z_MSC_GDPS_DewPointDepression_IsbL-0500_LatLon0.15_PT039H.grib2 2026-04-16 04:06 1.0M
20260416T00Z_MSC_GDPS_DewPointDepression_IsbL-0550_LatLon0.15_PT039H.grib2 2026-04-16 04:06 1.1M
20260416T00Z_MSC_GDPS_DewPointDepression_IsbL-0600_LatLon0.15_PT039H.grib2 2026-04-16 04:06 1.1M
20260416T00Z_MSC_GDPS_DewPointDepression_IsbL-0650_LatLon0.15_PT039H.grib2 2026-04-16 04:06 1.1M
20260416T00Z_MSC_GDPS_DewPointDepression_IsbL-0700_LatLon0.15_PT039H.grib2 2026-04-16 04:06 1.1M
20260416T00Z_MSC_GDPS_DewPointDepression_IsbL-0750_LatLon0.15_PT039H.grib2 2026-04-16 04:06 1.1M
20260416T00Z_MSC_GDPS_DewPointDepression_IsbL-0800_LatLon0.15_PT039H.grib2 2026-04-16 04:06 1.2M
20260416T00Z_MSC_GDPS_DewPointDepression_IsbL-0850_LatLon0.15_PT039H.grib2 2026-04-16 04:06 1.2M
20260416T00Z_MSC_GDPS_DewPointDepression_IsbL-0875_LatLon0.15_PT039H.grib2 2026-04-16 04:06 1.1M
20260416T00Z_MSC_GDPS_DewPointDepression_IsbL-0900_LatLon0.15_PT039H.grib2 2026-04-16 04:06 1.1M
20260416T00Z_MSC_GDPS_DewPointDepression_IsbL-0925_LatLon0.15_PT039H.grib2 2026-04-16 04:06 1.0M
20260416T00Z_MSC_GDPS_DewPointDepression_IsbL-0950_LatLon0.15_PT039H.grib2 2026-04-16 04:06 1.0M
20260416T00Z_MSC_GDPS_DewPointDepression_IsbL-0970_LatLon0.15_PT039H.grib2 2026-04-16 04:06 1.0M
20260416T00Z_MSC_GDPS_DewPointDepression_IsbL-0985_LatLon0.15_PT039H.grib2 2026-04-16 04:06 1.0M
20260416T00Z_MSC_GDPS_DewPointDepression_IsbL-1000_LatLon0.15_PT039H.grib2 2026-04-16 04:06 1.0M
20260416T00Z_MSC_GDPS_DewPointDepression_IsbL-1015_LatLon0.15_PT039H.grib2 2026-04-16 04:06 916K
20260416T00Z_MSC_GDPS_DewPoint_AGL-2m_LatLon0.15_PT039H.grib2 2026-04-16 04:06 620K
20260416T00Z_MSC_GDPS_DownwardLongwaveRadiationFlux-Accum_Sfc_LatLon0.15_PT039H.grib2 2026-04-16 04:06 743K
20260416T00Z_MSC_GDPS_DownwardShortwaveRadiationFlux-Accum_NTAtm_LatLon0.15_PT039H.grib2 2026-04-16 04:06 321K
20260416T00Z_MSC_GDPS_DownwardShortwaveRadiationFlux-Accum_Sfc_LatLon0.15_PT039H.grib2 2026-04-16 04:06 1.0M
20260416T00Z_MSC_GDPS_FreezingRain-Accum1h_Sfc_LatLon0.15_PT039H.grib2 2026-04-16 04:06 41K
20260416T00Z_MSC_GDPS_FreezingRain-Accum3h_Sfc_LatLon0.15_PT039H.grib2 2026-04-16 04:06 53K
20260416T00Z_MSC_GDPS_FreezingRain-Accum_Sfc_LatLon0.15_PT039H.grib2 2026-04-16 04:06 159K
20260416T00Z_MSC_GDPS_GeopotentialHeight_IsbL-0001_LatLon0.15_PT039H.grib2 2026-04-16 04:06 407K
20260416T00Z_MSC_GDPS_GeopotentialHeight_IsbL-0005_LatLon0.15_PT039H.grib2 2026-04-16 04:06 505K
20260416T00Z_MSC_GDPS_GeopotentialHeight_IsbL-0010_LatLon0.15_PT039H.grib2 2026-04-16 04:06 436K
20260416T00Z_MSC_GDPS_GeopotentialHeight_IsbL-0020_LatLon0.15_PT039H.grib2 2026-04-16 04:06 578K
20260416T00Z_MSC_GDPS_GeopotentialHeight_IsbL-0030_LatLon0.15_PT039H.grib2 2026-04-16 04:06 583K
20260416T00Z_MSC_GDPS_GeopotentialHeight_IsbL-0050_LatLon0.15_PT039H.grib2 2026-04-16 04:06 519K
20260416T00Z_MSC_GDPS_GeopotentialHeight_IsbL-0100_LatLon0.15_PT039H.grib2 2026-04-16 04:06 622K
20260416T00Z_MSC_GDPS_GeopotentialHeight_IsbL-0150_LatLon0.15_PT039H.grib2 2026-04-16 04:06 638K
20260416T00Z_MSC_GDPS_GeopotentialHeight_IsbL-0175_LatLon0.15_PT039H.grib2 2026-04-16 04:06 639K
20260416T00Z_MSC_GDPS_GeopotentialHeight_IsbL-0200_LatLon0.15_PT039H.grib2 2026-04-16 04:06 641K
20260416T00Z_MSC_GDPS_GeopotentialHeight_IsbL-0225_LatLon0.15_PT039H.grib2 2026-04-16 04:06 645K
20260416T00Z_MSC_GDPS_GeopotentialHeight_IsbL-0250_LatLon0.15_PT039H.grib2 2026-04-16 04:06 647K
20260416T00Z_MSC_GDPS_GeopotentialHeight_IsbL-0275_LatLon0.15_PT039H.grib2 2026-04-16 04:06 645K
20260416T00Z_MSC_GDPS_GeopotentialHeight_IsbL-0300_LatLon0.15_PT039H.grib2 2026-04-16 04:06 644K
20260416T00Z_MSC_GDPS_GeopotentialHeight_IsbL-0350_LatLon0.15_PT039H.grib2 2026-04-16 04:06 632K
20260416T00Z_MSC_GDPS_GeopotentialHeight_IsbL-0400_LatLon0.15_PT039H.grib2 2026-04-16 04:06 622K
20260416T00Z_MSC_GDPS_GeopotentialHeight_IsbL-0450_LatLon0.15_PT039H.grib2 2026-04-16 04:06 541K
20260416T00Z_MSC_GDPS_GeopotentialHeight_IsbL-0500_LatLon0.15_PT039H.grib2 2026-04-16 04:06 531K
20260416T00Z_MSC_GDPS_GeopotentialHeight_IsbL-0550_LatLon0.15_PT039H.grib2 2026-04-16 04:06 692K
20260416T00Z_MSC_GDPS_GeopotentialHeight_IsbL-0600_LatLon0.15_PT039H.grib2 2026-04-16 04:06 686K
20260416T00Z_MSC_GDPS_GeopotentialHeight_IsbL-0650_LatLon0.15_PT039H.grib2 2026-04-16 04:06 685K
20260416T00Z_MSC_GDPS_GeopotentialHeight_IsbL-0700_LatLon0.15_PT039H.grib2 2026-04-16 04:06 689K
20260416T00Z_MSC_GDPS_GeopotentialHeight_IsbL-0750_LatLon0.15_PT039H.grib2 2026-04-16 04:06 694K
20260416T00Z_MSC_GDPS_GeopotentialHeight_IsbL-0800_LatLon0.15_PT039H.grib2 2026-04-16 04:06 704K
20260416T00Z_MSC_GDPS_GeopotentialHeight_IsbL-0850_LatLon0.15_PT039H.grib2 2026-04-16 04:06 709K
20260416T00Z_MSC_GDPS_GeopotentialHeight_IsbL-0875_LatLon0.15_PT039H.grib2 2026-04-16 04:06 718K
20260416T00Z_MSC_GDPS_GeopotentialHeight_IsbL-0900_LatLon0.15_PT039H.grib2 2026-04-16 04:06 722K
20260416T00Z_MSC_GDPS_GeopotentialHeight_IsbL-0925_LatLon0.15_PT039H.grib2 2026-04-16 04:06 730K
20260416T00Z_MSC_GDPS_GeopotentialHeight_IsbL-0950_LatLon0.15_PT039H.grib2 2026-04-16 04:06 740K
20260416T00Z_MSC_GDPS_GeopotentialHeight_IsbL-0970_LatLon0.15_PT039H.grib2 2026-04-16 04:06 752K
20260416T00Z_MSC_GDPS_GeopotentialHeight_IsbL-0985_LatLon0.15_PT039H.grib2 2026-04-16 04:06 769K
20260416T00Z_MSC_GDPS_GeopotentialHeight_IsbL-1000_LatLon0.15_PT039H.grib2 2026-04-16 04:06 790K
20260416T00Z_MSC_GDPS_GeopotentialHeight_IsbL-1015_LatLon0.15_PT039H.grib2 2026-04-16 04:06 813K
20260416T00Z_MSC_GDPS_Humidex_Sfc_LatLon0.15_PT039H.grib2 2026-04-16 04:06 5.3M
20260416T00Z_MSC_GDPS_IcePellets-Accum1h_Sfc_LatLon0.15_PT039H.grib2 2026-04-16 04:06 18K
20260416T00Z_MSC_GDPS_IcePellets-Accum3h_Sfc_LatLon0.15_PT039H.grib2 2026-04-16 04:06 18K
20260416T00Z_MSC_GDPS_IcePellets-Accum_Sfc_LatLon0.15_PT039H.grib2 2026-04-16 04:06 74K
20260416T00Z_MSC_GDPS_KIndex_Sfc_LatLon0.15_PT039H.grib2 2026-04-16 04:06 6.4M
20260416T00Z_MSC_GDPS_LatentHeatNetFlux_Sfc_LatLon0.15_PT039H.grib2 2026-04-16 04:06 528K
20260416T00Z_MSC_GDPS_LiftedIndex-MU-VT_IsbL-0500_LatLon0.15_PT039H.grib2 2026-04-16 04:06 5.4M
20260416T00Z_MSC_GDPS_NetLongwaveRadiationFlux-Accum_Sfc_LatLon0.15_PT039H.grib2 2026-04-16 04:06 1.0M
20260416T00Z_MSC_GDPS_NetShortwaveRadiationFlux-Accum_Sfc_LatLon0.15_PT039H.grib2 2026-04-16 04:06 964K
20260416T00Z_MSC_GDPS_O3MixingRatio_LatLon0.15_PT039H.grib2 2026-04-16 04:52 2.0M
20260416T00Z_MSC_GDPS_O3_EAtm_LatLon0.15_PT039H.grib2 2026-04-16 04:52 2.1M
20260416T00Z_MSC_GDPS_PlanetaryBoundaryLayerHeight_Sfc_LatLon0.15_PT039H.grib2 2026-04-16 04:06 2.5M
20260416T00Z_MSC_GDPS_Precip-Accum1h_Sfc_LatLon0.15_PT039H.grib2 2026-04-16 04:06 3.2M
20260416T00Z_MSC_GDPS_Precip-Accum3h_Sfc_LatLon0.15_PT039H.grib2 2026-04-16 04:06 3.5M
20260416T00Z_MSC_GDPS_Precip-Accum_Sfc_LatLon0.15_PT039H.grib2 2026-04-16 04:06 4.7M
20260416T00Z_MSC_GDPS_PrecipRate_Sfc_LatLon0.15_PT039H.grib2 2026-04-16 04:06 3.0M
20260416T00Z_MSC_GDPS_PrecipType-Instant_Sfc_LatLon0.15_PT039H.grib2 2026-04-16 04:06 1.5M
20260416T00Z_MSC_GDPS_Pressure_MSL_LatLon0.15_PT039H.grib2 2026-04-16 04:06 727K
20260416T00Z_MSC_GDPS_Pressure_PVU-1.5_LatLon0.15_PT039H.grib2 2026-04-16 04:06 5.8M
20260416T00Z_MSC_GDPS_Pressure_PVU-1_LatLon0.15_PT039H.grib2 2026-04-16 04:06 6.0M
20260416T00Z_MSC_GDPS_Pressure_PVU-2_LatLon0.15_PT039H.grib2 2026-04-16 04:06 6.0M
20260416T00Z_MSC_GDPS_Pressure_Sfc_LatLon0.15_PT039H.grib2 2026-04-16 04:06 1.1M
20260416T00Z_MSC_GDPS_RadiativeTemp_Sfc_LatLon0.15_PT039H.grib2 2026-04-16 04:06 679K
20260416T00Z_MSC_GDPS_Rain-Accum1h_Sfc_LatLon0.15_PT039H.grib2 2026-04-16 04:06 1.6M
20260416T00Z_MSC_GDPS_Rain-Accum3h_Sfc_LatLon0.15_PT039H.grib2 2026-04-16 04:06 1.7M
20260416T00Z_MSC_GDPS_Rain-Accum_Sfc_LatLon0.15_PT039H.grib2 2026-04-16 04:06 3.5M
20260416T00Z_MSC_GDPS_RelativeHumidity_AGL-2m_LatLon0.15_PT039H.grib2 2026-04-16 04:06 1.0M
20260416T00Z_MSC_GDPS_RelativeHumidity_IsbL-0010_LatLon0.15_PT039H.grib2 2026-04-16 04:06 266K
20260416T00Z_MSC_GDPS_RelativeHumidity_IsbL-0020_LatLon0.15_PT039H.grib2 2026-04-16 04:06 388K
20260416T00Z_MSC_GDPS_RelativeHumidity_IsbL-0030_LatLon0.15_PT039H.grib2 2026-04-16 04:06 387K
20260416T00Z_MSC_GDPS_RelativeHumidity_IsbL-0050_LatLon0.15_PT039H.grib2 2026-04-16 04:06 329K
20260416T00Z_MSC_GDPS_RelativeHumidity_IsbL-0100_LatLon0.15_PT039H.grib2 2026-04-16 04:06 494K
20260416T00Z_MSC_GDPS_RelativeHumidity_IsbL-0150_LatLon0.15_PT039H.grib2 2026-04-16 04:06 658K
20260416T00Z_MSC_GDPS_RelativeHumidity_IsbL-0175_LatLon0.15_PT039H.grib2 2026-04-16 04:06 784K
20260416T00Z_MSC_GDPS_RelativeHumidity_IsbL-0200_LatLon0.15_PT039H.grib2 2026-04-16 04:06 690K
20260416T00Z_MSC_GDPS_RelativeHumidity_IsbL-0225_LatLon0.15_PT039H.grib2 2026-04-16 04:06 782K
20260416T00Z_MSC_GDPS_RelativeHumidity_IsbL-0250_LatLon0.15_PT039H.grib2 2026-04-16 04:06 876K
20260416T00Z_MSC_GDPS_RelativeHumidity_IsbL-0275_LatLon0.15_PT039H.grib2 2026-04-16 04:06 906K
20260416T00Z_MSC_GDPS_RelativeHumidity_IsbL-0300_LatLon0.15_PT039H.grib2 2026-04-16 04:06 954K
20260416T00Z_MSC_GDPS_RelativeHumidity_IsbL-0350_LatLon0.15_PT039H.grib2 2026-04-16 04:06 969K
20260416T00Z_MSC_GDPS_RelativeHumidity_IsbL-0400_LatLon0.15_PT039H.grib2 2026-04-16 04:06 1.0M
20260416T00Z_MSC_GDPS_RelativeHumidity_IsbL-0450_LatLon0.15_PT039H.grib2 2026-04-16 04:06 1.0M
20260416T00Z_MSC_GDPS_RelativeHumidity_IsbL-0500_LatLon0.15_PT039H.grib2 2026-04-16 04:06 1.0M
20260416T00Z_MSC_GDPS_RelativeHumidity_IsbL-0550_LatLon0.15_PT039H.grib2 2026-04-16 04:06 1.1M
20260416T00Z_MSC_GDPS_RelativeHumidity_IsbL-0600_LatLon0.15_PT039H.grib2 2026-04-16 04:06 1.1M
20260416T00Z_MSC_GDPS_RelativeHumidity_IsbL-0650_LatLon0.15_PT039H.grib2 2026-04-16 04:06 1.1M
20260416T00Z_MSC_GDPS_RelativeHumidity_IsbL-0700_LatLon0.15_PT039H.grib2 2026-04-16 04:06 1.1M
20260416T00Z_MSC_GDPS_RelativeHumidity_IsbL-0750_LatLon0.15_PT039H.grib2 2026-04-16 04:06 1.2M
20260416T00Z_MSC_GDPS_RelativeHumidity_IsbL-0800_LatLon0.15_PT039H.grib2 2026-04-16 04:06 1.3M
20260416T00Z_MSC_GDPS_RelativeHumidity_IsbL-0850_LatLon0.15_PT039H.grib2 2026-04-16 04:06 1.3M
20260416T00Z_MSC_GDPS_RelativeHumidity_IsbL-0875_LatLon0.15_PT039H.grib2 2026-04-16 04:06 1.3M
20260416T00Z_MSC_GDPS_RelativeHumidity_IsbL-0900_LatLon0.15_PT039H.grib2 2026-04-16 04:06 1.2M
20260416T00Z_MSC_GDPS_RelativeHumidity_IsbL-0925_LatLon0.15_PT039H.grib2 2026-04-16 04:06 1.2M
20260416T00Z_MSC_GDPS_RelativeHumidity_IsbL-0950_LatLon0.15_PT039H.grib2 2026-04-16 04:06 1.2M
20260416T00Z_MSC_GDPS_RelativeHumidity_IsbL-0970_LatLon0.15_PT039H.grib2 2026-04-16 04:06 1.2M
20260416T00Z_MSC_GDPS_RelativeHumidity_IsbL-0985_LatLon0.15_PT039H.grib2 2026-04-16 04:06 1.2M
20260416T00Z_MSC_GDPS_RelativeHumidity_IsbL-1000_LatLon0.15_PT039H.grib2 2026-04-16 04:06 1.1M
20260416T00Z_MSC_GDPS_RelativeHumidity_IsbL-1015_LatLon0.15_PT039H.grib2 2026-04-16 04:06 1.1M
20260416T00Z_MSC_GDPS_RelativeVorticity_IsbL-0200_LatLon0.15_PT039H.grib2 2026-04-16 04:06 1.5M
20260416T00Z_MSC_GDPS_RelativeVorticity_IsbL-0250_LatLon0.15_PT039H.grib2 2026-04-16 04:06 1.3M
20260416T00Z_MSC_GDPS_RelativeVorticity_IsbL-0500_LatLon0.15_PT039H.grib2 2026-04-16 04:06 1.5M
20260416T00Z_MSC_GDPS_RelativeVorticity_IsbL-0700_LatLon0.15_PT039H.grib2 2026-04-16 04:06 1.6M
20260416T00Z_MSC_GDPS_RelativeVorticity_IsbL-0850_LatLon0.15_PT039H.grib2 2026-04-16 04:06 1.6M
20260416T00Z_MSC_GDPS_Runoff-Accum_Sfc_LatLon0.15_PT039H.grib2 2026-04-16 04:06 91K
20260416T00Z_MSC_GDPS_SensibleHeatNetFlux_Sfc_LatLon0.15_PT039H.grib2 2026-04-16 04:06 638K
20260416T00Z_MSC_GDPS_ShowalterIndex_IsbL-0500_LatLon0.15_PT039H.grib2 2026-04-16 04:06 6.2M
20260416T00Z_MSC_GDPS_Snow-Accum1h_Sfc_LatLon0.15_PT039H.grib2 2026-04-16 04:06 1.0M
20260416T00Z_MSC_GDPS_Snow-Accum3h_Sfc_LatLon0.15_PT039H.grib2 2026-04-16 04:06 1.0M
20260416T00Z_MSC_GDPS_Snow-Accum_Sfc_LatLon0.15_PT039H.grib2 2026-04-16 04:06 1.7M
20260416T00Z_MSC_GDPS_SnowDensity_Sfc_LatLon0.15_PT039H.grib2 2026-04-16 04:06 264K
20260416T00Z_MSC_GDPS_SnowDepth_Sfc_LatLon0.15_PT039H.grib2 2026-04-16 04:06 1.8M
20260416T00Z_MSC_GDPS_SoilTemp_DBS-0to10cm_LatLon0.15_PT039H.grib2 2026-04-16 04:06 503K
20260416T00Z_MSC_GDPS_SoilTemp_Sfc_LatLon0.15_PT039H.grib2 2026-04-16 04:06 588K
20260416T00Z_MSC_GDPS_SoilVolumetricIceContent_Sfc_LatLon0.15_PT039H.grib2 2026-04-16 04:06 224K
20260416T00Z_MSC_GDPS_SoilVolumetricWaterContent_DBS-0to10cm_LatLon0.15_PT039H.grib2 2026-04-16 04:06 553K
20260416T00Z_MSC_GDPS_SoilVolumetricWaterContent_DBS-0to1cm_LatLon0.15_PT039H.grib2 2026-04-16 04:06 649K
20260416T00Z_MSC_GDPS_SpecificHumidity_AGL-120m_LatLon0.15_PT039H.grib2 2026-04-16 04:06 1.1M
20260416T00Z_MSC_GDPS_SpecificHumidity_AGL-2m_LatLon0.15_PT039H.grib2 2026-04-16 04:06 1.2M
20260416T00Z_MSC_GDPS_SpecificHumidity_AGL-40m_LatLon0.15_PT039H.grib2 2026-04-16 04:06 1.1M
20260416T00Z_MSC_GDPS_SpecificHumidity_AGL-80m_LatLon0.15_PT039H.grib2 2026-04-16 04:06 1.1M
20260416T00Z_MSC_GDPS_SpecificHumidity_IsbL-0001_LatLon0.15_PT039H.grib2 2026-04-16 04:06 1.2M
20260416T00Z_MSC_GDPS_SpecificHumidity_IsbL-0005_LatLon0.15_PT039H.grib2 2026-04-16 04:06 1.2M
20260416T00Z_MSC_GDPS_SpecificHumidity_IsbL-0010_LatLon0.15_PT039H.grib2 2026-04-16 04:06 1.3M
20260416T00Z_MSC_GDPS_SpecificHumidity_IsbL-0020_LatLon0.15_PT039H.grib2 2026-04-16 04:06 1.4M
20260416T00Z_MSC_GDPS_SpecificHumidity_IsbL-0030_LatLon0.15_PT039H.grib2 2026-04-16 04:06 1.4M
20260416T00Z_MSC_GDPS_SpecificHumidity_IsbL-0050_LatLon0.15_PT039H.grib2 2026-04-16 04:06 1.4M
20260416T00Z_MSC_GDPS_SpecificHumidity_IsbL-0100_LatLon0.15_PT039H.grib2 2026-04-16 04:06 1.3M
20260416T00Z_MSC_GDPS_SpecificHumidity_IsbL-0150_LatLon0.15_PT039H.grib2 2026-04-16 04:06 1.4M
20260416T00Z_MSC_GDPS_SpecificHumidity_IsbL-0175_LatLon0.15_PT039H.grib2 2026-04-16 04:06 1.3M
20260416T00Z_MSC_GDPS_SpecificHumidity_IsbL-0200_LatLon0.15_PT039H.grib2 2026-04-16 04:06 1.3M
20260416T00Z_MSC_GDPS_SpecificHumidity_IsbL-0225_LatLon0.15_PT039H.grib2 2026-04-16 04:06 1.3M
20260416T00Z_MSC_GDPS_SpecificHumidity_IsbL-0250_LatLon0.15_PT039H.grib2 2026-04-16 04:06 1.2M
20260416T00Z_MSC_GDPS_SpecificHumidity_IsbL-0275_LatLon0.15_PT039H.grib2 2026-04-16 04:06 1.1M
20260416T00Z_MSC_GDPS_SpecificHumidity_IsbL-0300_LatLon0.15_PT039H.grib2 2026-04-16 04:06 1.3M
20260416T00Z_MSC_GDPS_SpecificHumidity_IsbL-0350_LatLon0.15_PT039H.grib2 2026-04-16 04:06 1.2M
20260416T00Z_MSC_GDPS_SpecificHumidity_IsbL-0400_LatLon0.15_PT039H.grib2 2026-04-16 04:06 1.4M
20260416T00Z_MSC_GDPS_SpecificHumidity_IsbL-0450_LatLon0.15_PT039H.grib2 2026-04-16 04:06 1.3M
20260416T00Z_MSC_GDPS_SpecificHumidity_IsbL-0500_LatLon0.15_PT039H.grib2 2026-04-16 04:06 1.5M
20260416T00Z_MSC_GDPS_SpecificHumidity_IsbL-0550_LatLon0.15_PT039H.grib2 2026-04-16 04:06 1.6M
20260416T00Z_MSC_GDPS_SpecificHumidity_IsbL-0600_LatLon0.15_PT039H.grib2 2026-04-16 04:06 1.4M
20260416T00Z_MSC_GDPS_SpecificHumidity_IsbL-0650_LatLon0.15_PT039H.grib2 2026-04-16 04:06 1.5M
20260416T00Z_MSC_GDPS_SpecificHumidity_IsbL-0700_LatLon0.15_PT039H.grib2 2026-04-16 04:06 1.6M
20260416T00Z_MSC_GDPS_SpecificHumidity_IsbL-0750_LatLon0.15_PT039H.grib2 2026-04-16 04:06 1.7M
20260416T00Z_MSC_GDPS_SpecificHumidity_IsbL-0800_LatLon0.15_PT039H.grib2 2026-04-16 04:06 1.8M
20260416T00Z_MSC_GDPS_SpecificHumidity_IsbL-0850_LatLon0.15_PT039H.grib2 2026-04-16 04:06 1.9M
20260416T00Z_MSC_GDPS_SpecificHumidity_IsbL-0875_LatLon0.15_PT039H.grib2 2026-04-16 04:06 1.9M
20260416T00Z_MSC_GDPS_SpecificHumidity_IsbL-0900_LatLon0.15_PT039H.grib2 2026-04-16 04:06 1.6M
20260416T00Z_MSC_GDPS_SpecificHumidity_IsbL-0925_LatLon0.15_PT039H.grib2 2026-04-16 04:06 1.6M
20260416T00Z_MSC_GDPS_SpecificHumidity_IsbL-0950_LatLon0.15_PT039H.grib2 2026-04-16 04:06 1.5M
20260416T00Z_MSC_GDPS_SpecificHumidity_IsbL-0970_LatLon0.15_PT039H.grib2 2026-04-16 04:06 1.5M
20260416T00Z_MSC_GDPS_SpecificHumidity_IsbL-0985_LatLon0.15_PT039H.grib2 2026-04-16 04:06 1.5M
20260416T00Z_MSC_GDPS_SpecificHumidity_IsbL-1000_LatLon0.15_PT039H.grib2 2026-04-16 04:06 1.5M
20260416T00Z_MSC_GDPS_SpecificHumidity_IsbL-1015_LatLon0.15_PT039H.grib2 2026-04-16 04:06 1.4M
20260416T00Z_MSC_GDPS_SpecificHumidity_Sfc_LatLon0.15_PT039H.grib2 2026-04-16 04:06 667K
20260416T00Z_MSC_GDPS_Thickness_IsbL-0850to0700_LatLon0.15_PT039H.grib2 2026-04-16 04:06 469K
20260416T00Z_MSC_GDPS_Thickness_IsbL-1000to0500_LatLon0.15_PT039H.grib2 2026-04-16 04:06 376K
20260416T00Z_MSC_GDPS_Thickness_IsbL-1000to0850_LatLon0.15_PT039H.grib2 2026-04-16 04:06 494K
20260416T00Z_MSC_GDPS_TotalCloudCover_Sfc_LatLon0.15_PT039H.grib2 2026-04-16 04:06 832K
20260416T00Z_MSC_GDPS_TotalTotalsIndex_Sfc_LatLon0.15_PT039H.grib2 2026-04-16 04:06 6.2M
20260416T00Z_MSC_GDPS_UVIndex-ClearSky_Sfc_LatLon0.15_PT039H.grib2 2026-04-16 04:52 1.0M
20260416T00Z_MSC_GDPS_UVIndex_Sfc_LatLon0.15_PT039H.grib2 2026-04-16 04:52 1.5M
20260416T00Z_MSC_GDPS_UpwardLongwaveRadiationFlux_NTAtm_LatLon0.15_PT039H.grib2 2026-04-16 04:06 839K
20260416T00Z_MSC_GDPS_VerticalVelocity_IsbL-0200_LatLon0.15_PT039H.grib2 2026-04-16 04:06 1.2M
20260416T00Z_MSC_GDPS_VerticalVelocity_IsbL-0250_LatLon0.15_PT039H.grib2 2026-04-16 04:06 1.0M
20260416T00Z_MSC_GDPS_VerticalVelocity_IsbL-0500_LatLon0.15_PT039H.grib2 2026-04-16 04:06 1.0M
20260416T00Z_MSC_GDPS_VerticalVelocity_IsbL-0600_LatLon0.15_PT039H.grib2 2026-04-16 04:06 1.1M
20260416T00Z_MSC_GDPS_VerticalVelocity_IsbL-0700_LatLon0.15_PT039H.grib2 2026-04-16 04:06 1.1M
20260416T00Z_MSC_GDPS_VerticalVelocity_IsbL-0850_LatLon0.15_PT039H.grib2 2026-04-16 04:06 1.3M
20260416T00Z_MSC_GDPS_WindChill_Sfc_LatLon0.15_PT039H.grib2 2026-04-16 04:06 5.4M
20260416T00Z_MSC_GDPS_WindDir_AGL-10m_LatLon0.15_PT039H.grib2 2026-04-16 04:06 1.4M
20260416T00Z_MSC_GDPS_WindDir_AGL-120m_LatLon0.15_PT039H.grib2 2026-04-16 04:06 1.4M
20260416T00Z_MSC_GDPS_WindDir_AGL-40m_LatLon0.15_PT039H.grib2 2026-04-16 04:06 1.4M
20260416T00Z_MSC_GDPS_WindDir_AGL-80m_LatLon0.15_PT039H.grib2 2026-04-16 04:06 1.4M
20260416T00Z_MSC_GDPS_WindDir_IsbL-0001_LatLon0.15_PT039H.grib2 2026-04-16 04:06 649K
20260416T00Z_MSC_GDPS_WindDir_IsbL-0005_LatLon0.15_PT039H.grib2 2026-04-16 04:06 786K
20260416T00Z_MSC_GDPS_WindDir_IsbL-0010_LatLon0.15_PT039H.grib2 2026-04-16 04:06 845K
20260416T00Z_MSC_GDPS_WindDir_IsbL-0020_LatLon0.15_PT039H.grib2 2026-04-16 04:06 932K
20260416T00Z_MSC_GDPS_WindDir_IsbL-0030_LatLon0.15_PT039H.grib2 2026-04-16 04:06 897K
20260416T00Z_MSC_GDPS_WindDir_IsbL-0050_LatLon0.15_PT039H.grib2 2026-04-16 04:06 946K
20260416T00Z_MSC_GDPS_WindDir_IsbL-0100_LatLon0.15_PT039H.grib2 2026-04-16 04:06 1.0M
20260416T00Z_MSC_GDPS_WindDir_IsbL-0150_LatLon0.15_PT039H.grib2 2026-04-16 04:06 1.0M
20260416T00Z_MSC_GDPS_WindDir_IsbL-0175_LatLon0.15_PT039H.grib2 2026-04-16 04:06 1.0M
20260416T00Z_MSC_GDPS_WindDir_IsbL-0200_LatLon0.15_PT039H.grib2 2026-04-16 04:06 1.1M
20260416T00Z_MSC_GDPS_WindDir_IsbL-0225_LatLon0.15_PT039H.grib2 2026-04-16 04:06 1.1M
20260416T00Z_MSC_GDPS_WindDir_IsbL-0250_LatLon0.15_PT039H.grib2 2026-04-16 04:06 1.1M
20260416T00Z_MSC_GDPS_WindDir_IsbL-0275_LatLon0.15_PT039H.grib2 2026-04-16 04:06 1.2M
20260416T00Z_MSC_GDPS_WindDir_IsbL-0300_LatLon0.15_PT039H.grib2 2026-04-16 04:06 1.2M
20260416T00Z_MSC_GDPS_WindDir_IsbL-0350_LatLon0.15_PT039H.grib2 2026-04-16 04:06 1.2M
20260416T00Z_MSC_GDPS_WindDir_IsbL-0400_LatLon0.15_PT039H.grib2 2026-04-16 04:06 1.3M
20260416T00Z_MSC_GDPS_WindDir_IsbL-0450_LatLon0.15_PT039H.grib2 2026-04-16 04:06 1.3M
20260416T00Z_MSC_GDPS_WindDir_IsbL-0500_LatLon0.15_PT039H.grib2 2026-04-16 04:06 1.4M
20260416T00Z_MSC_GDPS_WindDir_IsbL-0550_LatLon0.15_PT039H.grib2 2026-04-16 04:06 1.4M
20260416T00Z_MSC_GDPS_WindDir_IsbL-0600_LatLon0.15_PT039H.grib2 2026-04-16 04:06 1.5M
20260416T00Z_MSC_GDPS_WindDir_IsbL-0650_LatLon0.15_PT039H.grib2 2026-04-16 04:06 1.5M
20260416T00Z_MSC_GDPS_WindDir_IsbL-0700_LatLon0.15_PT039H.grib2 2026-04-16 04:06 1.6M
20260416T00Z_MSC_GDPS_WindDir_IsbL-0750_LatLon0.15_PT039H.grib2 2026-04-16 04:06 1.7M
20260416T00Z_MSC_GDPS_WindDir_IsbL-0800_LatLon0.15_PT039H.grib2 2026-04-16 04:06 1.8M
20260416T00Z_MSC_GDPS_WindDir_IsbL-0850_LatLon0.15_PT039H.grib2 2026-04-16 04:06 2.0M
20260416T00Z_MSC_GDPS_WindDir_IsbL-0875_LatLon0.15_PT039H.grib2 2026-04-16 04:06 2.0M
20260416T00Z_MSC_GDPS_WindDir_IsbL-0900_LatLon0.15_PT039H.grib2 2026-04-16 04:06 2.0M
20260416T00Z_MSC_GDPS_WindDir_IsbL-0925_LatLon0.15_PT039H.grib2 2026-04-16 04:06 2.0M
20260416T00Z_MSC_GDPS_WindDir_IsbL-0950_LatLon0.15_PT039H.grib2 2026-04-16 04:06 2.0M
20260416T00Z_MSC_GDPS_WindDir_IsbL-0970_LatLon0.15_PT039H.grib2 2026-04-16 04:06 2.0M
20260416T00Z_MSC_GDPS_WindDir_IsbL-0985_LatLon0.15_PT039H.grib2 2026-04-16 04:06 2.1M
20260416T00Z_MSC_GDPS_WindDir_IsbL-1000_LatLon0.15_PT039H.grib2 2026-04-16 04:06 2.1M
20260416T00Z_MSC_GDPS_WindDir_IsbL-1015_LatLon0.15_PT039H.grib2 2026-04-16 04:06 2.1M
20260416T00Z_MSC_GDPS_WindGust-Max_AGL-10m_LatLon0.15_PT039H.grib2 2026-04-16 04:06 2.2M
20260416T00Z_MSC_GDPS_WindGust-Min_AGL-10m_LatLon0.15_PT039H.grib2 2026-04-16 04:06 2.1M
20260416T00Z_MSC_GDPS_WindGust_AGL-10m_LatLon0.15_PT039H.grib2 2026-04-16 04:06 2.1M
20260416T00Z_MSC_GDPS_WindSpeed_AGL-10m_LatLon0.15_PT039H.grib2 2026-04-16 04:06 1.1M
20260416T00Z_MSC_GDPS_WindSpeed_AGL-120m_LatLon0.15_PT039H.grib2 2026-04-16 04:06 1.2M
20260416T00Z_MSC_GDPS_WindSpeed_AGL-40m_LatLon0.15_PT039H.grib2 2026-04-16 04:06 1.2M
20260416T00Z_MSC_GDPS_WindSpeed_AGL-80m_LatLon0.15_PT039H.grib2 2026-04-16 04:06 1.2M
20260416T00Z_MSC_GDPS_WindSpeed_IsbL-0001_LatLon0.15_PT039H.grib2 2026-04-16 04:06 637K
20260416T00Z_MSC_GDPS_WindSpeed_IsbL-0005_LatLon0.15_PT039H.grib2 2026-04-16 04:06 691K
20260416T00Z_MSC_GDPS_WindSpeed_IsbL-0010_LatLon0.15_PT039H.grib2 2026-04-16 04:06 628K
20260416T00Z_MSC_GDPS_WindSpeed_IsbL-0020_LatLon0.15_PT039H.grib2 2026-04-16 04:06 672K
20260416T00Z_MSC_GDPS_WindSpeed_IsbL-0030_LatLon0.15_PT039H.grib2 2026-04-16 04:06 867K
20260416T00Z_MSC_GDPS_WindSpeed_IsbL-0050_LatLon0.15_PT039H.grib2 2026-04-16 04:06 922K
20260416T00Z_MSC_GDPS_WindSpeed_IsbL-0100_LatLon0.15_PT039H.grib2 2026-04-16 04:06 1.1M
20260416T00Z_MSC_GDPS_WindSpeed_IsbL-0150_LatLon0.15_PT039H.grib2 2026-04-16 04:06 937K
20260416T00Z_MSC_GDPS_WindSpeed_IsbL-0175_LatLon0.15_PT039H.grib2 2026-04-16 04:06 1.0M
20260416T00Z_MSC_GDPS_WindSpeed_IsbL-0200_LatLon0.15_PT039H.grib2 2026-04-16 04:06 1.1M
20260416T00Z_MSC_GDPS_WindSpeed_IsbL-0225_LatLon0.15_PT039H.grib2 2026-04-16 04:06 1.1M
20260416T00Z_MSC_GDPS_WindSpeed_IsbL-0250_LatLon0.15_PT039H.grib2 2026-04-16 04:06 1.1M
20260416T00Z_MSC_GDPS_WindSpeed_IsbL-0275_LatLon0.15_PT039H.grib2 2026-04-16 04:06 1.1M
20260416T00Z_MSC_GDPS_WindSpeed_IsbL-0300_LatLon0.15_PT039H.grib2 2026-04-16 04:06 1.1M
20260416T00Z_MSC_GDPS_WindSpeed_IsbL-0350_LatLon0.15_PT039H.grib2 2026-04-16 04:06 1.1M
20260416T00Z_MSC_GDPS_WindSpeed_IsbL-0400_LatLon0.15_PT039H.grib2 2026-04-16 04:06 1.1M
20260416T00Z_MSC_GDPS_WindSpeed_IsbL-0450_LatLon0.15_PT039H.grib2 2026-04-16 04:06 1.1M
20260416T00Z_MSC_GDPS_WindSpeed_IsbL-0500_LatLon0.15_PT039H.grib2 2026-04-16 04:06 1.1M
20260416T00Z_MSC_GDPS_WindSpeed_IsbL-0550_LatLon0.15_PT039H.grib2 2026-04-16 04:06 1.1M
20260416T00Z_MSC_GDPS_WindSpeed_IsbL-0600_LatLon0.15_PT039H.grib2 2026-04-16 04:06 1.4M
20260416T00Z_MSC_GDPS_WindSpeed_IsbL-0650_LatLon0.15_PT039H.grib2 2026-04-16 04:06 1.4M
20260416T00Z_MSC_GDPS_WindSpeed_IsbL-0700_LatLon0.15_PT039H.grib2 2026-04-16 04:06 1.6M
20260416T00Z_MSC_GDPS_WindSpeed_IsbL-0750_LatLon0.15_PT039H.grib2 2026-04-16 04:06 1.5M
20260416T00Z_MSC_GDPS_WindSpeed_IsbL-0800_LatLon0.15_PT039H.grib2 2026-04-16 04:06 1.6M
20260416T00Z_MSC_GDPS_WindSpeed_IsbL-0850_LatLon0.15_PT039H.grib2 2026-04-16 04:06 1.7M
20260416T00Z_MSC_GDPS_WindSpeed_IsbL-0875_LatLon0.15_PT039H.grib2 2026-04-16 04:06 1.8M
20260416T00Z_MSC_GDPS_WindSpeed_IsbL-0900_LatLon0.15_PT039H.grib2 2026-04-16 04:06 1.8M
20260416T00Z_MSC_GDPS_WindSpeed_IsbL-0925_LatLon0.15_PT039H.grib2 2026-04-16 04:06 1.8M
20260416T00Z_MSC_GDPS_WindSpeed_IsbL-0950_LatLon0.15_PT039H.grib2 2026-04-16 04:06 1.8M
20260416T00Z_MSC_GDPS_WindSpeed_IsbL-0970_LatLon0.15_PT039H.grib2 2026-04-16 04:06 1.9M
20260416T00Z_MSC_GDPS_WindSpeed_IsbL-0985_LatLon0.15_PT039H.grib2 2026-04-16 04:06 1.9M
20260416T00Z_MSC_GDPS_WindSpeed_IsbL-1000_LatLon0.15_PT039H.grib2 2026-04-16 04:06 1.9M
20260416T00Z_MSC_GDPS_WindSpeed_IsbL-1015_LatLon0.15_PT039H.grib2 2026-04-16 04:06 1.8M
20260416T00Z_MSC_GDPS_WindU_AGL-10m_LatLon0.15_PT039H.grib2 2026-04-16 04:06 1.3M
20260416T00Z_MSC_GDPS_WindU_AGL-120m_LatLon0.15_PT039H.grib2 2026-04-16 04:06 1.0M
20260416T00Z_MSC_GDPS_WindU_AGL-40m_LatLon0.15_PT039H.grib2 2026-04-16 04:06 1.0M
20260416T00Z_MSC_GDPS_WindU_AGL-80m_LatLon0.15_PT039H.grib2 2026-04-16 04:06 1.0M
20260416T00Z_MSC_GDPS_WindU_IsbL-0001_LatLon0.15_PT039H.grib2 2026-04-16 04:06 640K
20260416T00Z_MSC_GDPS_WindU_IsbL-0005_LatLon0.15_PT039H.grib2 2026-04-16 04:06 690K
20260416T00Z_MSC_GDPS_WindU_IsbL-0010_LatLon0.15_PT039H.grib2 2026-04-16 04:06 702K
20260416T00Z_MSC_GDPS_WindU_IsbL-0020_LatLon0.15_PT039H.grib2 2026-04-16 04:06 737K
20260416T00Z_MSC_GDPS_WindU_IsbL-0030_LatLon0.15_PT039H.grib2 2026-04-16 04:06 740K
20260416T00Z_MSC_GDPS_WindU_IsbL-0050_LatLon0.15_PT039H.grib2 2026-04-16 04:06 711K
20260416T00Z_MSC_GDPS_WindU_IsbL-0100_LatLon0.15_PT039H.grib2 2026-04-16 04:06 873K
20260416T00Z_MSC_GDPS_WindU_IsbL-0150_LatLon0.15_PT039H.grib2 2026-04-16 04:06 1.0M
20260416T00Z_MSC_GDPS_WindU_IsbL-0175_LatLon0.15_PT039H.grib2 2026-04-16 04:06 1.0M
20260416T00Z_MSC_GDPS_WindU_IsbL-0200_LatLon0.15_PT039H.grib2 2026-04-16 04:06 1.1M
20260416T00Z_MSC_GDPS_WindU_IsbL-0225_LatLon0.15_PT039H.grib2 2026-04-16 04:06 1.1M
20260416T00Z_MSC_GDPS_WindU_IsbL-0250_LatLon0.15_PT039H.grib2 2026-04-16 04:06 1.1M
20260416T00Z_MSC_GDPS_WindU_IsbL-0275_LatLon0.15_PT039H.grib2 2026-04-16 04:06 887K
20260416T00Z_MSC_GDPS_WindU_IsbL-0300_LatLon0.15_PT039H.grib2 2026-04-16 04:06 880K
20260416T00Z_MSC_GDPS_WindU_IsbL-0350_LatLon0.15_PT039H.grib2 2026-04-16 04:06 892K
20260416T00Z_MSC_GDPS_WindU_IsbL-0400_LatLon0.15_PT039H.grib2 2026-04-16 04:06 1.1M
20260416T00Z_MSC_GDPS_WindU_IsbL-0450_LatLon0.15_PT039H.grib2 2026-04-16 04:06 1.1M
20260416T00Z_MSC_GDPS_WindU_IsbL-0500_LatLon0.15_PT039H.grib2 2026-04-16 04:06 1.1M
20260416T00Z_MSC_GDPS_WindU_IsbL-0550_LatLon0.15_PT039H.grib2 2026-04-16 04:06 1.1M
20260416T00Z_MSC_GDPS_WindU_IsbL-0600_LatLon0.15_PT039H.grib2 2026-04-16 04:06 1.1M
20260416T00Z_MSC_GDPS_WindU_IsbL-0650_LatLon0.15_PT039H.grib2 2026-04-16 04:06 1.2M
20260416T00Z_MSC_GDPS_WindU_IsbL-0700_LatLon0.15_PT039H.grib2 2026-04-16 04:06 1.2M
20260416T00Z_MSC_GDPS_WindU_IsbL-0750_LatLon0.15_PT039H.grib2 2026-04-16 04:06 1.3M
20260416T00Z_MSC_GDPS_WindU_IsbL-0800_LatLon0.15_PT039H.grib2 2026-04-16 04:06 1.3M
20260416T00Z_MSC_GDPS_WindU_IsbL-0850_LatLon0.15_PT039H.grib2 2026-04-16 04:06 1.4M
20260416T00Z_MSC_GDPS_WindU_IsbL-0875_LatLon0.15_PT039H.grib2 2026-04-16 04:06 1.4M
20260416T00Z_MSC_GDPS_WindU_IsbL-0900_LatLon0.15_PT039H.grib2 2026-04-16 04:06 1.5M
20260416T00Z_MSC_GDPS_WindU_IsbL-0925_LatLon0.15_PT039H.grib2 2026-04-16 04:06 1.5M
20260416T00Z_MSC_GDPS_WindU_IsbL-0950_LatLon0.15_PT039H.grib2 2026-04-16 04:06 1.4M
20260416T00Z_MSC_GDPS_WindU_IsbL-0970_LatLon0.15_PT039H.grib2 2026-04-16 04:06 1.4M
20260416T00Z_MSC_GDPS_WindU_IsbL-0985_LatLon0.15_PT039H.grib2 2026-04-16 04:06 1.4M
20260416T00Z_MSC_GDPS_WindU_IsbL-1000_LatLon0.15_PT039H.grib2 2026-04-16 04:06 1.4M
20260416T00Z_MSC_GDPS_WindU_IsbL-1015_LatLon0.15_PT039H.grib2 2026-04-16 04:06 1.4M
20260416T00Z_MSC_GDPS_WindV_AGL-10m_LatLon0.15_PT039H.grib2 2026-04-16 04:06 1.6M
20260416T00Z_MSC_GDPS_WindV_AGL-120m_LatLon0.15_PT039H.grib2 2026-04-16 04:06 1.0M
20260416T00Z_MSC_GDPS_WindV_AGL-40m_LatLon0.15_PT039H.grib2 2026-04-16 04:06 1.0M
20260416T00Z_MSC_GDPS_WindV_AGL-80m_LatLon0.15_PT039H.grib2 2026-04-16 04:06 1.0M
20260416T00Z_MSC_GDPS_WindV_IsbL-0001_LatLon0.15_PT039H.grib2 2026-04-16 04:06 701K
20260416T00Z_MSC_GDPS_WindV_IsbL-0005_LatLon0.15_PT039H.grib2 2026-04-16 04:06 779K
20260416T00Z_MSC_GDPS_WindV_IsbL-0010_LatLon0.15_PT039H.grib2 2026-04-16 04:06 804K
20260416T00Z_MSC_GDPS_WindV_IsbL-0020_LatLon0.15_PT039H.grib2 2026-04-16 04:06 856K
20260416T00Z_MSC_GDPS_WindV_IsbL-0030_LatLon0.15_PT039H.grib2 2026-04-16 04:06 858K
20260416T00Z_MSC_GDPS_WindV_IsbL-0050_LatLon0.15_PT039H.grib2 2026-04-16 04:06 709K
20260416T00Z_MSC_GDPS_WindV_IsbL-0100_LatLon0.15_PT039H.grib2 2026-04-16 04:06 859K
20260416T00Z_MSC_GDPS_WindV_IsbL-0150_LatLon0.15_PT039H.grib2 2026-04-16 04:06 1.0M
20260416T00Z_MSC_GDPS_WindV_IsbL-0175_LatLon0.15_PT039H.grib2 2026-04-16 04:06 1.0M
20260416T00Z_MSC_GDPS_WindV_IsbL-0200_LatLon0.15_PT039H.grib2 2026-04-16 04:06 844K
20260416T00Z_MSC_GDPS_WindV_IsbL-0225_LatLon0.15_PT039H.grib2 2026-04-16 04:06 854K
20260416T00Z_MSC_GDPS_WindV_IsbL-0250_LatLon0.15_PT039H.grib2 2026-04-16 04:06 855K
20260416T00Z_MSC_GDPS_WindV_IsbL-0275_LatLon0.15_PT039H.grib2 2026-04-16 04:06 943K
20260416T00Z_MSC_GDPS_WindV_IsbL-0300_LatLon0.15_PT039H.grib2 2026-04-16 04:06 934K
20260416T00Z_MSC_GDPS_WindV_IsbL-0350_LatLon0.15_PT039H.grib2 2026-04-16 04:06 943K
20260416T00Z_MSC_GDPS_WindV_IsbL-0400_LatLon0.15_PT039H.grib2 2026-04-16 04:06 881K
20260416T00Z_MSC_GDPS_WindV_IsbL-0450_LatLon0.15_PT039H.grib2 2026-04-16 04:06 878K
20260416T00Z_MSC_GDPS_WindV_IsbL-0500_LatLon0.15_PT039H.grib2 2026-04-16 04:06 1.1M
20260416T00Z_MSC_GDPS_WindV_IsbL-0550_LatLon0.15_PT039H.grib2 2026-04-16 04:06 1.1M
20260416T00Z_MSC_GDPS_WindV_IsbL-0600_LatLon0.15_PT039H.grib2 2026-04-16 04:06 1.1M
20260416T00Z_MSC_GDPS_WindV_IsbL-0650_LatLon0.15_PT039H.grib2 2026-04-16 04:06 1.2M
20260416T00Z_MSC_GDPS_WindV_IsbL-0700_LatLon0.15_PT039H.grib2 2026-04-16 04:06 1.2M
20260416T00Z_MSC_GDPS_WindV_IsbL-0750_LatLon0.15_PT039H.grib2 2026-04-16 04:06 1.3M
20260416T00Z_MSC_GDPS_WindV_IsbL-0800_LatLon0.15_PT039H.grib2 2026-04-16 04:06 1.3M
20260416T00Z_MSC_GDPS_WindV_IsbL-0850_LatLon0.15_PT039H.grib2 2026-04-16 04:06 1.4M
20260416T00Z_MSC_GDPS_WindV_IsbL-0875_LatLon0.15_PT039H.grib2 2026-04-16 04:06 1.4M
20260416T00Z_MSC_GDPS_WindV_IsbL-0900_LatLon0.15_PT039H.grib2 2026-04-16 04:06 1.5M
20260416T00Z_MSC_GDPS_WindV_IsbL-0925_LatLon0.15_PT039H.grib2 2026-04-16 04:06 1.5M
20260416T00Z_MSC_GDPS_WindV_IsbL-0950_LatLon0.15_PT039H.grib2 2026-04-16 04:06 1.4M
20260416T00Z_MSC_GDPS_WindV_IsbL-0970_LatLon0.15_PT039H.grib2 2026-04-16 04:06 1.4M
20260416T00Z_MSC_GDPS_WindV_IsbL-0985_LatLon0.15_PT039H.grib2 2026-04-16 04:06 1.4M
20260416T00Z_MSC_GDPS_WindV_IsbL-1000_LatLon0.15_PT039H.grib2 2026-04-16 04:06 1.4M
20260416T00Z_MSC_GDPS_WindV_IsbL-1015_LatLon0.15_PT039H.grib2 2026-04-16 04:06 1.4M